Weather History for Albuquerque, NM

Change the Weather History Date:

Friday, July 5, 2013

  Actual Average Record
Temperature  
Mean Temperature 82 °F 78 °F  
Max Temperature 94 °F 91 °F 105 °F (1980)
Min Temperature 69 °F 66 °F 46 °F (1916)
Degree Days  
Heating Degree Days 0 0  
Month to date heating degree days 0 0  
Since 1 June heating degree days 0 4  
Since 1 July heating degree days 0 0  
Cooling Degree Days 17 14  
Month to date cooling degree days 59 66  
Year to date cooling degree days 631 466  
Since 1 June cooling degree days 514 368  
Growing Degree Days 32 (Base 50)    
Moisture  
Dew Point 53 °F    
Average Humidity 50    
Maximum Humidity 78    
Minimum Humidity 22    
Precipitation  
Precipitation 0.32 in 0.04 in 0.70 in (1915)
Month to date precipitation 0.46 0.18  
Year to date precipitation 1.16 3.38  
Snow  
Snow 0.00 in - - ()
Month to date snowfall 0.0  
Since 1 June snowfall 0.0  
Since 1 July snowfall 0.0  
Snow Depth 0.00 in    
Sea Level Pressure  
Sea Level Pressure 29.80 in    
Wind  
Wind Speed 7 mph (SSE)    
Max Wind Speed 32 mph    
Max Gust Speed 47 mph    
Visibility 10 miles    
Events Rain , Thunderstorm    
T = Trace of Precipitation, MM = Missing Value Source: NWS Daily Summary

Daily Weather History Graph

Daily Weather History Graph

Search for Another Location

Airport:

Trip Planner

Search our weather history database for the weather conditions in past years. The results will help you decide how hot, cold, wet, or windy it might be!

Date:

Astronomy

Jul. 05, 2013 Rise Set
Actual Time 5:58 AM MDT 8:23 PM MDT
Civil Twilight 5:28 AM MDT 8:53 PM MDT
Nautical Twilight 4:52 AM MDT 9:29 PM MDT
Astronomical Twilight 4:12 AM MDT 10:09 PM MDT
Moon 3:57 AM MDT (7/5) 6:23 PM MDT (7/5)
Length of Visible Light 15h 24m
Length of Day
14h 25m
Waning Crescent, 6% of the Moon is Illuminated
Jul 5
Waning Crescent
Jul 8
New
Jul 15
First Quarter
Jul 22
Full
Jul 29
Last Quarter

Hourly Weather History & Observations

Time (MDT) Temp. Heat Index Dew Point Humidity Pressure Visibility Wind Dir Wind Speed Gust Speed Precip Events Conditions
12:52 AM 71.1 °F - 51.1 °F 49% 29.81 in 10.0 mi SE 12.7 mph - N/A   Overcast
1:52 AM 71.1 °F - 51.1 °F 49% 29.80 in 10.0 mi SSE 4.6 mph - N/A   Mostly Cloudy
2:52 AM 73.0 °F - 50.0 °F 44% 29.76 in 10.0 mi SSE 10.4 mph - N/A   Overcast
3:52 AM 71.1 °F - 53.1 °F 53% 29.76 in 10.0 mi ESE 4.6 mph - 0.00 in Rain Light Rain
4:52 AM 73.0 °F - 50.0 °F 44% 29.76 in 10.0 mi Calm Calm - 0.00 in   Overcast
5:52 AM 73.0 °F - 52.0 °F 48% 29.77 in 10.0 mi ENE 3.5 mph - N/A   Overcast
6:52 AM 71.1 °F - 55.0 °F 57% 29.78 in 10.0 mi SSE 4.6 mph - N/A   Mostly Cloudy
7:52 AM 75.0 °F - 51.1 °F 43% 29.78 in 10.0 mi Calm Calm - N/A   Mostly Cloudy
8:52 AM 77.0 °F - 52.0 °F 42% 29.80 in 10.0 mi Calm Calm - N/A   Scattered Clouds
9:52 AM 78.1 °F - 52.0 °F 40% 29.81 in 10.0 mi SSE 5.8 mph - N/A   Scattered Clouds
10:52 AM 82.0 °F - 48.9 °F 31% 29.81 in 10.0 mi SW 5.8 mph - N/A   Scattered Clouds
11:52 AM 84.9 °F - 50.0 °F 30% 29.79 in 10.0 mi East 6.9 mph 17.3 mph N/A   Scattered Clouds
12:52 PM 87.1 °F - 48.9 °F 27% 29.75 in 10.0 mi South 4.6 mph - N/A   Scattered Clouds
1:52 PM 90.0 °F - 48.0 °F 24% 29.72 in 10.0 mi SE 8.1 mph - N/A   Scattered Clouds
2:52 PM 93.0 °F - 48.0 °F 21% 29.67 in 10.0 mi South 8.1 mph - N/A   Scattered Clouds
3:26 PM 91.4 °F - 46.4 °F 21% 29.96 in 10.0 mi SW 5.8 mph - N/A Thunderstorm Thunderstorm
3:45 PM 87.8 °F - 48.2 °F 25% 29.97 in 10.0 mi WNW 23.0 mph 29.9 mph N/A Thunderstorm Thunderstorm
3:52 PM 84.9 °F 83.3 °F 54.0 °F 34% 29.70 in 10.0 mi NW 18.4 mph 29.9 mph 0.00 in Rain , Thunderstorm Light Thunderstorms and Rain
3:55 PM 82.4 °F 82.0 °F 57.2 °F 42% 29.99 in 10.0 mi NNW 21.9 mph 26.5 mph 0.00 in Rain , Thunderstorm Light Thunderstorms and Rain
4:12 PM 78.8 °F - 55.4 °F 44% 30.00 in 10.0 mi WNW 18.4 mph 27.6 mph 0.00 in Rain , Thunderstorm Light Thunderstorms and Rain
4:17 PM 78.8 °F - 55.4 °F 44% 30.00 in 10.0 mi SW 19.6 mph 29.9 mph 0.03 in Rain , Thunderstorm Heavy Thunderstorms and Rain
4:28 PM 77.0 °F - 51.8 °F 41% 29.98 in 10.0 mi West 16.1 mph 40.3 mph 0.18 in Rain , Thunderstorm Heavy Thunderstorms and Rain
4:52 PM 86.0 °F - 46.9 °F 26% 29.65 in 10.0 mi South 6.9 mph 17.3 mph 0.24 in   Mostly Cloudy
5:52 PM 82.9 °F 82.8 °F 59.0 °F 44% 29.65 in 10.0 mi East 3.5 mph - N/A   Mostly Cloudy
6:52 PM 87.1 °F - 52.0 °F 30% 29.66 in 10.0 mi Calm Calm - N/A   Mostly Cloudy
7:52 PM 82.9 °F 81.8 °F 53.1 °F 36% 29.71 in 10.0 mi SSW 20.7 mph 24.2 mph 0.00 in Rain Light Rain
8:29 PM 75.2 °F - 55.4 °F 50% 30.03 in 10.0 mi NNW 23.0 mph 26.5 mph 0.00 in Rain Light Rain
8:52 PM 73.0 °F - 57.9 °F 59% 29.79 in 10.0 mi North 17.3 mph 26.5 mph 0.00 in Rain Light Rain
9:52 PM 73.0 °F - 60.1 °F 64% 29.84 in 10.0 mi Variable 6.9 mph - 0.01 in Rain Light Rain
10:52 PM 70.0 °F - 63.0 °F 78% 29.85 in 10.0 mi East 4.6 mph - 0.04 in Rain Light Rain
11:52 PM 71.1 °F - 60.1 °F 68% 29.83 in 10.0 mi SE 9.2 mph - 0.00 in Rain Light Rain